Volver al catálogo

COSMOS 2251 DEB

ActivoLEO
NORAD 34609·DEBRIS·🇷🇺 Russia

Lanzado Jun 16, 1993 desde Plesetsk Cosmodrome

Loading…

Próximos Pases (próximas 24 horas)

TLE

ActualizadoSource: Space-Track

Época: Sep 14, 2026, 14:48 UTC

1 34609U 93036WE  26257.61698468  .00000948  00000-0  39388-3 0  9998
2 34609  73.7335 322.0824 0140091 138.3567  13.1274 14.22668197905548

Sigue COSMOS 2251 DEB en tiempo real con AllMySat

Download on the App Store